Voltar ao catálogo

COSMOS 2532

AtivoMilitarPO
NORAD 43753·PAYLOAD·🇷🇺 Russia

Lançado Nov 30, 2018 de Plesetsk Cosmodrome

Loading…

Próximas Passagens (próximas 24 horas)

TLE

AtualizadoSource: Space-Track

Época: Sep 14, 2026, 14:47 UTC

1 43753U 18097C   26257.61626977  .00000033  00000-0  16467-3 0  9996
2 43753  82.5182 166.6281 0016688 220.9809 139.0018 12.42911753353388

Acompanhe COSMOS 2532 em tempo real com AllMySat

Download on the App Store